User: anonymous   Login
Location: Chevoux
(46.3801°N, 4.9476°E)
Time: 21:15:50
(UTC+00:00)
Language:

TIGRISAT - Orbit

View from above orbital plane
View from above orbital plane
View from above satellite
View from above satellite

Ground track
Ground track

The orbit data is extracted from the following two-line orbital elements,

1 40043U 14033AK  21175.03878784  .00000189  00000-0  34980-4 0  9999
2 40043  97.6724  18.5042 0058443 236.1869 123.3768 14.74543084377105
Epoch (UTC): 24 June 2021 00:55:51
Eccentricity: 0.0058443
inclination: 97.6724°
perigee height: 605 km
apogee height: 687 km
right ascension of ascending node: 18.5042°
argument of perigee: 236.1869°
revolutions per day: 14.74543084
mean anomaly at epoch: 123.3768°
orbit number at epoch: 37710

The dashed part of the orbit path shows where the satellite is in the earth's shadow,  

DLR